Location: Cactus School
(34.5700°N, 118.0931°W)
Time: 02:26:33
(UTC-07:00)

Transit 4A - Pass Details

Date: 16 April 2024
Orbit: 871 x 971 km, 66.8° (Epoch: 20 May)

Event Time Altitude Azimuth Distance (km) Brightness Sun altitude
Rises 21:37:30 0° 353° (N) 3,464 11.5 -25.5°
Reaches altitude 10° 21:42:25 10° 30° (NNE) 2,525 10.2 -26.3°
Maximum altitude 21:43:50 11° 44° (NE) 2,466 10.0 -26.5°
Enters shadow 21:44:05 11° 46° (NE) 2,468 10.0 -26.6°
Drops below altitude 10° 21:45:16 10° 58° (ENE) 2,529 - -26.8°
Sets 21:50:11 0° 95° (E) 3,480 - -27.6°
